Lakehurst NAS, NJ

6:14 AM EST on November 21, 2017 (GMT -0500)
Lakehurst Naes

Weather History for KNEL - May, 2013

Change the Weather History Date:

Friday, May 24, 2013

  Actual Average Record
Temperature  
Mean Temperature 64 °F -  
Max Temperature 51 °F 70 °F 88 °F (2004)
Min Temperature 51 °F 53 °F 48 °F (2015)
Growing Degree Days 14 (Base 50)    
Moisture  
Dew Point 54 °F    
Average Humidity 70    
Maximum Humidity 83    
Minimum Humidity 58    
Precipitation  
Precipitation 0.00 in - - ()
Sea Level Pressure  
Sea Level Pressure 29.82 in    
Wind  
Wind Speed 7 mph (WNW)    
Max Wind Speed 16 mph    
Max Gust Speed 30 mph    
Averages and records for this station are not official NWS values.
T = Trace of Precipitation, MM = Missing Value Source: NWS Daily Summary

Daily Weather History Graph

Daily Weather History Graph

Search for Another Location

Airport or City:

Trip Planner

Search our weather history database for the weather conditions in past years. The results will help you decide how hot, cold, wet, or windy it might be!

Date:

Astronomy

May. 24, 2013 Rise Set
Actual Time 5:34 AM EDT 8:14 PM EDT
Civil Twilight 5:03 AM EDT 8:45 PM EDT
Nautical Twilight 4:23 AM EDT 9:25 PM EDT
Astronomical Twilight 3:39 AM EDT 10:10 PM EDT
Moon 7:53 PM EDT (5/24) 5:04 AM EDT (5/24)
Length of Visible Light 15h 42m
Length of Day
14h 39m
Full, 100% of the Moon is Illuminated
May 24
Full
May 25
Full
May 31
Last Quarter
Jun 8
New
Jun 16
First Quarter

Hourly Weather History & Observations

Time (EDT) Temp. Dew Point Humidity Pressure Visibility Wind Dir Wind Speed Gust Speed Precip Events Conditions
12:00 AM 77.0 °F 66.0 °F 69% 29.76 in - South 6.9 mph - N/A   Overcast
1:00 AM 75.0 °F 64.9 °F 71% 29.73 in - SSW 8.1 mph - N/A   Overcast
1:14 AM 75.2 °F 64.4 °F 69% 29.74 in - SSW 6.9 mph - N/A   Overcast
2:00 AM 75.0 °F 64.9 °F 71% 29.73 in - Calm Calm - N/A   Overcast
2:18 AM 73.4 °F 64.4 °F 73% 29.72 in - SW 4.6 mph - N/A   Overcast
2:34 AM 69.8 °F 64.4 °F 83% 29.71 in - Calm Calm - N/A Rain Light Rain
3:00 AM 73.4 °F 64.4 °F 73% 29.72 in - Calm Calm - N/A   Overcast
3:06 AM 72.0 °F 64.0 °F 76% 29.72 in - West 4.6 mph - N/A Rain Light Rain
5:00 AM 71.1 °F 63.0 °F 75% 29.71 in - Calm Calm - N/A   Mostly Cloudy
5:16 AM 73.4 °F 64.4 °F 73% 29.72 in - Calm Calm - N/A   Overcast
6:00 AM 73.0 °F 63.0 °F 71% 29.72 in - WSW 3.5 mph - N/A   Scattered Clouds
7:00 AM 75.2 °F 64.4 °F 69% 29.73 in - SW 3.5 mph - N/A   Overcast
7:06 AM 75.0 °F 64.0 °F 69% 29.73 in - SSW 3.5 mph - N/A   Overcast
8:00 AM 75.9 °F 64.0 °F 67% 29.75 in - West 6.9 mph - N/A   Mostly Cloudy
9:00 AM 75.9 °F 64.0 °F 67% 29.75 in - West 6.9 mph - N/A   Overcast
9:12 AM 77.0 °F 64.4 °F 65% 29.76 in - West 6.9 mph - N/A   Overcast
10:00 AM 77.0 °F 64.0 °F 64% 29.75 in - WNW 8.1 mph - N/A   Overcast
10:46 AM 77.0 °F 64.4 °F 65% 29.76 in - Variable 6.9 mph - N/A   Overcast
11:00 AM 78.1 °F 63.0 °F 60% 29.75 in - NW 6.9 mph - N/A   Mostly Cloudy
11:26 AM 66.2 °F 55.4 °F 68% 29.79 in - NW 13.8 mph 23.0 mph N/A   Overcast
12:00 PM 60.1 °F 52.0 °F 75% 29.80 in - NW 15.0 mph 23.0 mph N/A Rain Light Rain
1:00 PM 57.9 °F 48.0 °F 70% 29.83 in - NW 12.7 mph 21.9 mph N/A   Overcast
1:34 PM 59.0 °F 48.2 °F 67% 29.84 in - NW 8.1 mph 16.1 mph N/A   Overcast
2:00 PM 59.0 °F 48.0 °F 67% 29.84 in - NW 10.4 mph 20.7 mph N/A   Overcast
2:15 PM 55.4 °F 46.4 °F 72% 29.84 in - NW 10.4 mph 29.9 mph N/A   Overcast
2:39 PM 55.4 °F 46.4 °F 72% 29.86 in - NW 9.2 mph 20.7 mph N/A Rain Rain
2:48 PM 57.2 °F 48.2 °F 72% 29.86 in - NW 9.2 mph - N/A Rain Light Rain
2:55 PM 55.4 °F 48.2 °F 77% 29.85 in - NW 10.4 mph 18.4 mph N/A Rain Heavy Rain
3:00 PM 55.4 °F 48.2 °F 77% 29.86 in - NW 13.8 mph 19.6 mph N/A Rain Rain
3:06 PM 57.0 °F 48.0 °F 72% 29.86 in - WNW 16.1 mph 23.0 mph N/A Rain Light Rain
3:14 PM 55.4 °F 48.2 °F 77% 29.86 in - NW 10.4 mph 23.0 mph N/A Rain Light Rain
3:21 PM 55.4 °F 48.2 °F 77% 29.86 in - NW 11.5 mph 19.6 mph N/A Rain Rain
4:00 PM 54.0 °F 48.0 °F 80% 29.86 in - NNW 9.2 mph 21.9 mph N/A Rain Rain
4:13 PM 57.2 °F 48.2 °F 72% 29.87 in - NW 11.5 mph 17.3 mph N/A Rain Rain
5:00 PM 55.9 °F 48.0 °F 75% 29.88 in - NW 10.4 mph 18.4 mph N/A Rain Light Rain
6:00 PM 55.0 °F 46.9 °F 74% 29.88 in - NW 15.0 mph 20.7 mph N/A   Overcast
6:37 PM 55.4 °F 44.6 °F 67% 29.90 in - NW 10.4 mph 16.1 mph N/A   Overcast
7:00 PM 54.0 °F 43.0 °F 66% 29.91 in - NW 12.7 mph 23.0 mph N/A   Overcast
8:00 PM 54.0 °F 42.1 °F 64% 29.94 in - NW 8.1 mph 19.6 mph N/A   Overcast
9:00 PM 55.4 °F 41.0 °F 58% 29.95 in - NW 8.1 mph 20.7 mph N/A   Overcast
9:06 PM 55.9 °F 42.1 °F 60% 29.96 in - NW 12.7 mph 23.0 mph N/A   Overcast
10:00 PM 54.0 °F 41.0 °F 62% 29.96 in - WNW 11.5 mph 17.3 mph N/A   Overcast
10:11 PM 55.4 °F 42.8 °F 63% 29.98 in - NW 10.4 mph 19.6 mph N/A   Overcast
10:46 PM 51.8 °F 42.8 °F 71% 29.98 in - NW 9.2 mph 18.4 mph N/A Rain Light Rain
11:00 PM 52.0 °F 42.1 °F 69% 29.98 in - WNW 13.8 mph 23.0 mph N/A Rain Light Rain